Regional Weather Roundup
Issued by NWS

Home | Current Version | Previous Version | Graphics & Text | Print | Product List | Glossary On
Versions: 1 2 3 4 5 6 7 8 9 10 11 12 13 14 15 16 17 18 19 20 21 22 23 24 25 26 27
000
ASUS45 KCYS 201310
RWRWY

WYOMING REGIONAL WEATHER ROUNDUP
NATIONAL WEATHER SERVICE CHEYENNE WY
600 AM MST MON NOV 20 2017

NOTE:  "FAIR" INDICATES FEW OR NO CLOUDS BELOW 12,000 FEET
WITH NO SIGNIFICANT WEATHER AND/OR OBSTRUCTIONS TO VISIBILITY.

WYZ001-201400-
YELLOWSTONE NATIONAL PARK

CITY           SKY/WX    TMP DP  RH WIND       PRES   REMARKS
LK YELLOWSTONE   N/A     17  15  92 CALM      29.94R
W YELLOWSTONE  NOT AVBL

$$
WYZ002>013-054>058-071-098>099-201400-
NORTHERN WYOMING

CITY           SKY/WX    TMP DP  RH WIND       PRES   REMARKS
JACKSON        CLOUDY    33  22  63 SW17G28     N/A  WCI  22
CODY           FAIR      48  10  21 VRB5G28   29.68F
GREYBULL       FAIR      25  22  88 S6        29.74S WCI  18
WORLAND        FAIR      21  20  96 S6        29.74S WCI  13
SHERIDAN       FAIR      54  12  18 SW16G23   29.60F
BUFFALO        FAIR      55   8  15 W9G29     29.66R
GILLETTE       FAIR      44  11  26 SW26G33   29.61S
HULETT         FAIR      43  12  28 SW16G23   29.61F
NEWCASTLE      FAIR      32  14  47 SE5       29.69F WCI  27

$$
WYZ014>020-022>026-101>103-201400-
CENTRAL WYOMING

CITY           SKY/WX    TMP DP  RH WIND       PRES   REMARKS
BIG PINEY      FAIR      13  10  88 E5        30.02F WCI   5
PINEDALE       CLOUDY    19  16  86 W6        30.03F WCI  11
DUBOIS         PTSUNNY   34  12  40 NW23G35   29.90R WCI  22
LANDER         FAIR      37   8  30 CALM      29.81R
RIVERTON       FAIR      32  10  40 SW6       29.81F WCI  26
CASPER         FAIR      34  14  43 SW14      29.84S WCI  25
DOUGLAS        FAIR      46  11  24 W25G33    29.74R

$$
WYZ021-027>030-104>119-201400-
SOUTHERN WYOMING

CITY           SKY/WX    TMP DP  RH WIND       PRES   REMARKS
EVANSTON       FAIR      27  15  61 SW12      30.05F WCI  17
KEMMERER       FAIR      25  14  63 SW12      30.02F WCI  14
FORT BRIDGER   FAIR      31  18  59 W8        30.06S WCI  23
ROCK SPRINGS   FAIR      23  12  62 W8        30.02F WCI  14
DIXON          PTSUNNY   20  13  73 CALM      30.10S
RAWLINS        FAIR      35  10  35 SW13      29.96F WCI  26
SARATOGA       FAIR      32  12  43 S14G20    30.01F WCI  22
LARAMIE        FAIR      37   4  25 SW26      29.94F WCI  25
CHEYENNE       FAIR      48  -3  12 SW10G23   29.84F
TORRINGTON     FAIR      51   7  16 NW10G28   29.70F
PINE BLUFFS    FAIR      46   0  14 MISG      29.80F

$$




USA.gov is the U.S. government's official web portal to all federal, state and local government web resources and services.